Date String (YYYY-MM-DD hh:mm:ss) UTC,Instrument flags,Ambient pressure (hPa),Sample flow (lpm),Bypass flow (lpm),Sample temperature (°C),Ambient temperature (°C),ASC tube jacket temperature (°C),LED temperature (°C),Box temperature (°C),Sample RH (%),Span deviation,Mass concentration (μg/m³),Mass concentration (μg/m³),Mass concentration (μg/m³)
DateTimeUTC,F1_M11,P_M11,Q1_M11,Q2_M11,T1_M11,T2_M11,T3_M11,T4_M11,T5_M11,U1_M11,ZSPAN_M11,X0_M11,X2_M11,X1_M11
2023-04-27 02:00:00,,0829.8,5.01,0.00,24.8,23.9,00.0,33.1,26.5,22.2,-000.4,0007.62,0004.77,0004.45
2023-04-27 02:01:00,,0829.8,5.01,0.00,24.9,23.9,00.0,33.1,26.5,22.2,-000.4,0007.65,0004.81,0004.50
2023-04-27 02:02:00,,0829.8,4.99,0.00,24.9,23.9,00.0,33.1,26.5,22.2,-000.2,0007.70,0004.84,0004.53
2023-04-27 02:03:00,,0829.8,4.99,0.00,24.9,23.9,00.0,33.1,26.5,22.1,0000.3,0008.05,0004.87,0004.53
2023-04-27 02:04:00,,0829.8,5.01,0.00,24.9,23.8,00.0,33.1,26.5,22.2,0000.8,0008.35,0004.86,0004.51
2023-04-27 02:05:00,,0829.8,5.01,0.00,24.9,23.7,00.0,33.1,26.5,22.3,0000.2,0008.20,0004.81,0004.48
2023-04-27 02:06:00,,0829.8,4.98,0.00,24.9,23.7,00.0,33.2,26.5,22.2,0000.4,0008.03,0004.77,0004.45
2023-04-27 02:07:00,,0829.8,4.99,0.00,24.8,23.6,00.0,33.2,26.5,22.3,0000.1,0008.05,0004.76,0004.42
2023-04-27 02:08:00,,0829.8,5.01,0.00,24.8,23.6,00.0,33.2,26.4,22.4,0000.0,0007.98,0004.70,0004.37
2023-04-27 02:09:00,,0829.8,5.00,0.00,24.8,23.5,00.0,33.2,26.4,22.3,0000.0,0007.96,0004.67,0004.32
2023-04-27 02:10:00,,0829.8,5.00,0.00,24.8,23.5,00.0,33.2,26.4,22.3,0000.0,0007.87,0004.57,0004.23
2023-04-27 02:11:00,,0829.8,5.00,0.00,24.8,23.4,00.0,33.2,26.4,22.2,0000.0,0007.93,0004.42,0004.12
2023-04-27 02:12:00,,0829.8,5.00,0.00,24.8,23.4,00.0,33.2,26.3,22.1,0000.0,0008.11,0004.31,0004.03
2023-04-27 02:13:00,,0829.8,5.00,0.00,24.7,23.4,00.0,33.2,26.3,22.0,0000.0,0008.49,0004.30,0004.01
2023-04-27 02:14:00,,0829.7,5.00,0.00,24.7,23.4,00.0,33.2,26.4,22.1,0000.0,0008.16,0004.27,0003.97
2023-04-27 02:15:00,,0829.8,5.00,0.00,24.7,23.4,00.0,33.2,26.4,22.0,0000.0,0007.87,0004.22,0003.92
2023-04-27 02:16:00,,0829.7,5.01,0.00,24.7,23.4,00.0,33.2,26.4,21.8,0000.0,0007.83,0004.15,0003.86
2023-04-27 02:17:00,,0829.7,5.01,0.00,24.8,23.4,00.0,33.2,26.4,21.7,0000.0,0007.79,0004.09,0003.80
2023-04-27 02:18:00,,0829.7,4.99,0.00,24.8,23.5,00.0,33.2,26.4,21.7,0000.0,0008.14,0004.04,0003.73
2023-04-27 02:19:00,,0829.7,5.00,0.00,24.8,23.5,00.0,33.2,26.4,21.6,0000.0,0008.18,0003.99,0003.65
2023-04-27 02:20:00,,0829.7,5.01,0.00,24.8,23.5,00.0,33.2,26.4,21.6,0000.0,0008.14,0003.97,0003.63
2023-04-27 02:21:00,,0829.7,5.01,0.00,24.8,23.5,00.0,33.2,26.5,21.6,-000.1,0008.16,0004.01,0003.68
2023-04-27 02:22:00,,0829.7,4.99,0.00,24.8,23.5,00.0,33.2,26.5,21.5,-000.1,0007.96,0004.07,0003.76
2023-04-27 02:23:00,,0829.7,5.00,0.00,24.8,23.5,00.0,33.2,26.5,21.5,-000.6,0007.73,0004.15,0003.83
2023-04-27 02:24:00,,0829.8,5.01,0.00,24.8,23.6,00.0,33.2,26.5,21.5,0000.0,0007.32,0004.17,0003.87
2023-04-27 02:25:00,,0829.7,5.00,0.00,24.8,23.6,00.0,33.2,26.5,21.5,0000.0,0007.34,0004.21,0003.92
2023-04-27 02:26:00,,0829.8,5.01,0.00,24.9,23.6,00.0,33.2,26.5,21.5,0000.0,0007.48,0004.30,0003.99
2023-04-27 02:27:00,,0829.8,5.00,0.00,24.9,23.6,00.0,33.2,26.5,21.6,-000.3,0007.56,0004.37,0004.05
2023-04-27 02:28:00,,0829.8,5.00,0.00,24.9,23.6,00.0,33.2,26.5,21.6,-000.3,0007.61,0004.43,0004.11
2023-04-27 02:29:00,,0829.8,5.00,0.00,24.9,23.6,00.0,33.2,26.5,21.6,0000.0,0007.14,0004.47,0004.18
2023-04-27 02:30:00,,0829.8,5.00,0.00,24.9,23.6,00.0,33.2,26.6,21.6,0000.0,0007.16,0004.55,0004.29
2023-04-27 02:31:00,,0829.9,5.00,0.00,24.9,23.6,00.0,33.2,26.5,21.6,0000.0,0007.37,0004.64,0004.36
2023-04-27 02:32:00,,0829.9,5.00,0.00,24.9,23.6,00.0,33.2,26.5,21.5,0000.0,0007.44,0004.69,0004.40
2023-04-27 02:33:00,,0829.8,4.99,0.00,24.9,23.5,00.0,33.2,26.5,21.5,0000.0,0007.53,0004.73,0004.41
2023-04-27 02:34:00,,0829.8,5.00,0.00,24.8,23.5,00.0,33.2,26.4,21.6,0000.0,0007.64,0004.77,0004.42
2023-04-27 02:35:00,,0829.8,5.00,0.00,24.8,23.4,00.0,33.2,26.4,21.9,0000.0,0007.65,0004.69,0004.33
2023-04-27 02:36:00,,0829.8,5.00,0.00,24.8,23.3,00.0,33.2,26.4,22.3,0000.0,0007.45,0004.51,0004.15
2023-04-27 02:37:00,,0829.8,5.00,0.00,24.7,23.2,00.0,33.2,26.3,22.1,0000.0,0007.27,0004.41,0004.05
2023-04-27 02:38:00,,0829.8,5.00,0.00,24.7,23.2,00.0,33.2,26.3,22.1,0000.0,0007.07,0004.34,0003.99
2023-04-27 02:39:00,,0829.8,5.00,0.00,24.7,23.1,00.0,33.2,26.2,22.0,0000.0,0006.88,0004.23,0003.89
2023-04-27 02:40:00,,0829.8,5.00,0.00,24.7,23.1,00.0,33.2,26.2,22.1,0000.0,0006.93,0004.18,0003.83
2023-04-27 02:41:00,,0829.8,5.00,0.00,24.6,23.1,00.0,33.2,26.2,22.1,0000.0,0007.02,0004.13,0003.76
2023-04-27 02:42:00,,0829.8,4.99,0.00,24.6,23.1,00.0,33.2,26.2,22.1,0000.0,0006.83,0004.03,0003.68
2023-04-27 02:43:00,,0829.8,4.99,0.00,24.6,23.1,00.0,33.1,26.2,22.2,0000.0,0006.72,0003.93,0003.56
2023-04-27 02:44:00,,0829.8,5.00,0.00,24.6,23.1,00.0,33.1,26.2,22.2,0000.0,0007.17,0003.83,0003.46
2023-04-27 02:45:00,,0829.8,5.01,0.00,24.6,23.1,00.0,33.1,26.2,22.2,0000.0,0007.71,0003.68,0003.35
2023-04-27 02:46:00,,0829.8,5.00,0.00,24.6,23.1,00.0,33.1,26.2,22.3,0000.0,0007.67,0003.66,0003.33
2023-04-27 02:47:00,,0829.8,4.98,0.00,24.6,23.2,00.0,33.1,26.2,22.2,0000.0,0007.75,0003.71,0003.38
2023-04-27 02:48:00,,0829.8,5.00,0.00,24.6,23.2,00.0,33.1,26.2,22.2,0000.0,0007.76,0003.72,0003.39
2023-04-27 02:49:00,,0829.8,5.00,0.00,24.6,23.2,00.0,33.1,26.2,22.1,0000.0,0007.79,0003.73,0003.38
2023-04-27 02:50:00,,0829.8,5.01,0.00,24.6,23.2,00.0,33.1,26.2,22.2,0000.0,0007.85,0003.76,0003.39
2023-04-27 02:51:00,,0829.8,5.00,0.00,24.6,23.2,00.0,33.1,26.2,22.1,0000.0,0007.83,0003.74,0003.37
2023-04-27 02:52:00,,0829.8,4.99,0.00,24.6,23.2,00.0,33.1,26.1,22.1,0000.0,0007.75,0003.73,0003.36
2023-04-27 02:53:00,,0829.8,5.01,0.00,24.6,23.2,00.0,33.1,26.1,22.2,0000.0,0007.80,0003.70,0003.32
2023-04-27 02:54:00,,0829.8,5.00,0.00,24.6,23.1,00.0,33.1,26.1,22.2,0000.0,0007.82,0003.70,0003.31
2023-04-27 02:55:00,,0829.8,5.01,0.00,24.6,23.1,00.0,33.1,26.1,22.2,0000.0,0007.51,0003.68,0003.31
2023-04-27 02:56:00,,0829.8,4.99,0.00,24.6,23.1,00.0,33.1,26.1,22.2,0000.0,0006.28,0003.68,0003.30
2023-04-27 02:57:00,,0829.8,4.98,0.00,24.6,23.1,00.0,33.0,26.1,22.2,0000.0,0006.23,0003.69,0003.30
2023-04-27 02:58:00,,0829.8,5.01,0.00,24.6,23.1,00.0,33.0,26.1,22.1,0000.0,0006.15,0003.68,0003.29
2023-04-27 02:59:00,,0829.8,5.00,0.00,24.6,23.1,00.0,33.0,26.1,22.0,0000.0,0006.02,0003.66,0003.29
